STARLINK-30498, 57971

Orbit data source: Space-Track

STARLINK-30498, 57971 is a payload satellite owned by SpaceX/Seattle (US) in LEO that was launched on Sat, 30 Sep 2023 UTC via an FALCON 9 launch vehicle from the Air Force Eastern Test Range (AFETR). Payload-class satellites include a variety of spacecraft equipped with specific instruments for various scientific and technological missions. These include communications satellites like Starlink; space stations such as the ISS; scientific satellites like the Hubble; Earth observation satellites from companies like Planet Labs, Umbra, and HawkEye 360; GPS; miniature CubeSats for education and research; and military/defense satellites.

Loading next visibility...
Identifier
57971, 2023-151H
Orbit
LEO
Country
Flag of USUS
Related business
Manufacturer
SpaceX/Seattle
Mission
Operational Commercial Communications
Bus & Motor
STARLINK V2M, Unknown motor
Mass
730 kg wet, ~700 kg dry
Launch date (UTC)
2023-09-30 (3 years ago)
Launch vehicle
FALCON 9
Launch site
Air Force Eastern Test Range (AFETR)
Object type
Payload
Rocket body
Debris
Shape & HBR
Box + 2 Pan, 17.7 m
Radar Cross Section
33.884 m², Large (>1 m²)

Expand to show TLE details & history
Last TLE update: 2 days ago

TLE from 2 days ago
0 STARLINK-30498
1 57971U 23151H   26173.94110476  .00001613  00000-0  68119-4 0  9992
2 57971  43.0022 101.5519 0001378 265.6047  94.4647 15.27576002151863
Epoch: 2026-06-22T22:35Z
TLE epoch observation values (Epoch: 2026-06-22T22:35:11.451Z)
Latitude
-0.00002°
Longitude
-148.36564°
Altitude
482.91 km
Speed
7.626 km/s
True Right ascension
06h 46m 12s
True Declination
0° 00' 00"
Sunlit
Object was in daylight at epoch
Visualization orbit readout
Latitude
Unknown
Longitude
Unknown
Altitude
Unknown
Speed
Unknown
Apparent Right ascension
Unknown
Apparent Declination
Unknown
Sunlit
N/A
Visualization observer readout
Local Sidereal Time
13:37:26
Azimuth
Unknown
Elevation
Unknown
Doppler factor
Unknown
Orbital elements
Apogee altitude
485.952 km
Perigee altitude
484.06 km
Semi-major axis
6,863.143 km
Eccentricity
0.00014
Inclination
43.0022°
RAAN
101.5519°
Arg. of periapsis
265.6047°
True anomaly
94.48044°
Mean anomaly
94.4647°
Eccentric anomaly
94.47257°
Mean motion
3.81732 °/min
Orbital period
94.31 mins
BSTAR
0.000068119
Loading maneuver chart data...
Computing Atmospheric mass density...
Loading historical data...
Loading historical data...
Loading historical data...
Loading historical data...
Loading historical data...
Loading historical data...
Loading historical data...

Documentation

Showing up to 5 results
|